BEL8HW ESGG-EBBR

Flight info

Callsign BEL8HW
Flight time 1h 23m
Altitude 36000
Route VADIN3J VADIN M852 ALS N872 OGFON DCT KUBAT N872 LILSI/N0449F370 Z310 WOODY WOODY5B
Aircraft A320/M-SDE3FGHIRWY/LB1

Departure

Time 2026-05-04 11:16
Airport Göteborg Landvetter Airport (ESGG)

Arrival

Time 2026-05-04 12:39
Airport Brussels Airport (EBBR)
Time Latitude Longitude Altitude Speed Heading
2026-05-04 11:12 57.67402 12.29544 532 ft 4 kts 331°
2026-05-04 11:12 57.67425 12.29541 533 ft 3 kts
2026-05-04 11:12 57.67456 12.29561 533 ft 6 kts 26°
2026-05-04 11:13 57.67506 12.29599 533 ft 9 kts
2026-05-04 11:13 57.67564 12.29521 533 ft 13 kts 297°
2026-05-04 11:13 57.67589 12.29345 533 ft 16 kts 272°
2026-05-04 11:13 57.67563 12.29147 532 ft 16 kts 224°
2026-05-04 11:14 57.67432 12.29022 530 ft 38 kts 205°
2026-05-04 11:14 57.66982 12.28611 528 ft 103 kts 205°
2026-05-04 11:14 57.66170 12.27878 522 ft 153 kts 205°
2026-05-04 11:16 57.57266 12.23134 3732 ft 270 kts 182°
2026-05-04 11:16 57.55403 12.23052 4766 ft 268 kts 189°
2026-05-04 11:16 57.53537 12.22651 5630 ft 272 kts 193°
2026-05-04 11:17 57.51662 12.22105 6543 ft 273 kts 195°
2026-05-04 11:17 57.49785 12.21527 7461 ft 274 kts 194°
2026-05-04 11:19 57.38236 12.09465 11884 ft 320 kts 227°
2026-05-04 11:19 57.36624 12.06595 12651 ft 322 kts 227°
2026-05-04 11:19 57.35002 12.03703 13414 ft 324 kts 228°
2026-05-04 11:19 57.33384 12.00771 14085 ft 327 kts 228°
2026-05-04 11:20 57.31764 11.97787 14724 ft 330 kts 229°
2026-05-04 11:20 57.30141 11.94768 15379 ft 332 kts 229°
2026-05-04 11:20 57.28511 11.91725 16037 ft 334 kts 229°
2026-05-04 11:20 57.26873 11.88662 16690 ft 336 kts 229°
2026-05-04 11:22 57.15004 11.66706 20719 ft 356 kts 226°
2026-05-04 11:22 57.12997 11.63956 21238 ft 364 kts 215°
2026-05-04 11:23 57.10688 11.61908 21729 ft 372 kts 208°
2026-05-04 11:23 57.08291 11.60042 22231 ft 375 kts 208°
2026-05-04 11:24 56.93586 11.48588 24805 ft 391 kts 208°
2026-05-04 11:25 56.91071 11.46630 25163 ft 394 kts 208°
2026-05-04 11:25 56.88539 11.44661 25511 ft 397 kts 208°
2026-05-04 11:25 56.85989 11.42685 25860 ft 399 kts 207°
2026-05-04 11:26 56.80845 11.38702 26534 ft 404 kts 207°
2026-05-04 11:27 56.62360 11.24499 28778 ft 420 kts 207°
2026-05-04 11:28 56.59659 11.22439 29041 ft 422 kts 207°
2026-05-04 11:28 56.56949 11.20374 29361 ft 423 kts 207°
2026-05-04 11:28 56.54224 11.18298 29641 ft 425 kts 207°
2026-05-04 11:28 56.51493 11.16220 29904 ft 427 kts 207°
2026-05-04 11:29 56.48746 11.14134 30129 ft 429 kts 207°
2026-05-04 11:29 56.45983 11.12043 30344 ft 431 kts 207°
2026-05-04 11:29 56.43211 11.09947 30567 ft 432 kts 207°
2026-05-04 11:29 56.40430 11.07847 30792 ft 433 kts 207°
2026-05-04 11:31 56.21136 10.93370 32807 ft 427 kts 207°
2026-05-04 11:33 56.02064 10.79188 34635 ft 423 kts 207°
2026-05-04 11:33 55.99344 10.77183 34853 ft 423 kts 206°
2026-05-04 11:33 55.97503 10.75831 34994 ft 423 kts 206°
2026-05-04 11:34 55.94780 10.73833 35202 ft 423 kts 206°
2026-05-04 11:34 55.92090 10.71861 35396 ft 423 kts 206°
2026-05-04 11:34 55.89368 10.69865 35590 ft 423 kts 206°
2026-05-04 11:34 55.86644 10.67872 35776 ft 423 kts 206°
2026-05-04 11:35 55.83920 10.65877 35902 ft 424 kts 206°
2026-05-04 11:35 55.81197 10.63884 35947 ft 423 kts 206°
2026-05-04 11:35 55.75767 10.59921 35949 ft 422 kts 206°
2026-05-04 11:36 55.70335 10.55990 35955 ft 422 kts 206°
2026-05-04 11:36 55.64905 10.52057 35952 ft 422 kts 206°
2026-05-04 11:37 55.59475 10.48121 35954 ft 422 kts 206°
2026-05-04 11:37 55.54039 10.44191 35981 ft 422 kts 206°
2026-05-04 11:38 55.48594 10.40292 35983 ft 422 kts 206°
2026-05-04 11:38 55.43141 10.36406 35982 ft 423 kts 206°
2026-05-04 11:39 55.37692 10.32530 35984 ft 422 kts 206°
2026-05-04 11:41 55.18665 10.19018 35984 ft 421 kts 206°
2026-05-04 11:41 55.13233 10.15183 35996 ft 421 kts 206°
2026-05-04 11:42 55.07798 10.11372 35983 ft 420 kts 206°
2026-05-04 11:42 55.02369 10.07585 35996 ft 420 kts 206°
2026-05-04 11:43 54.96946 10.03812 36000 ft 419 kts 206°
2026-05-04 11:43 54.91671 9.99618 36001 ft 414 kts 217°
2026-05-04 11:44 54.87436 9.93038 36000 ft 407 kts 232°
2026-05-04 11:44 54.83778 9.85530 35971 ft 407 kts 233°
2026-05-04 11:45 54.80480 9.77570 35983 ft 406 kts 236°
2026-05-04 11:45 54.77220 9.69564 35979 ft 407 kts 236°
2026-05-04 11:46 54.73950 9.61629 35983 ft 408 kts 236°
2026-05-04 11:46 54.70619 9.53606 35982 ft 408 kts 236°
2026-05-04 11:47 54.67348 9.45665 35985 ft 408 kts 236°
2026-05-04 11:47 54.64047 9.37677 35967 ft 408 kts 236°
2026-05-04 11:48 54.60740 9.29726 35971 ft 408 kts 235°
2026-05-04 11:48 54.57420 9.21807 35995 ft 407 kts 235°
2026-05-04 11:49 54.54099 9.13892 36011 ft 408 kts 236°
2026-05-04 11:49 54.50772 9.05978 36007 ft 408 kts 236°
2026-05-04 11:50 54.47435 8.98055 36008 ft 409 kts 236°
2026-05-04 11:50 54.44090 8.90134 36012 ft 410 kts 235°
2026-05-04 11:51 54.40731 8.82238 36003 ft 409 kts 235°
2026-05-04 11:51 54.37359 8.74338 36020 ft 409 kts 235°
2026-05-04 11:52 54.33993 8.66469 36025 ft 409 kts 235°
2026-05-04 11:52 54.30629 8.58616 36029 ft 408 kts 235°
2026-05-04 11:53 54.27286 8.50833 36040 ft 408 kts 235°
2026-05-04 11:53 54.23888 8.42958 36028 ft 409 kts 235°
2026-05-04 11:55 54.07621 8.15745 36025 ft 411 kts 225°
2026-05-04 11:56 54.03469 8.09051 36029 ft 411 kts 225°
2026-05-04 11:56 53.99311 8.02376 36032 ft 411 kts 225°
2026-05-04 11:57 53.95149 7.95721 36034 ft 410 kts 225°
2026-05-04 11:57 53.90993 7.89083 36043 ft 410 kts 225°
2026-05-04 11:58 53.86842 7.82466 36040 ft 410 kts 225°
2026-05-04 11:58 53.82684 7.75863 36028 ft 410 kts 225°
2026-05-04 11:59 53.78520 7.69272 36026 ft 410 kts 225°
2026-05-04 11:59 53.74349 7.62693 36005 ft 410 kts 225°
2026-05-04 12:00 53.70187 7.56120 36028 ft 409 kts 225°
2026-05-04 12:00 53.66028 7.49584 36039 ft 408 kts 225°
2026-05-04 12:01 53.61864 7.43074 36039 ft 407 kts 225°
2026-05-04 12:02 53.47349 7.20481 36017 ft 406 kts 224°
2026-05-04 12:03 53.43188 7.14062 36036 ft 406 kts 224°
2026-05-04 12:03 53.39027 7.07646 36037 ft 406 kts 224°
2026-05-04 12:04 53.34861 7.01254 36036 ft 406 kts 224°
2026-05-04 12:04 53.31016 6.94364 36030 ft 405 kts 230°
2026-05-04 12:05 53.27307 6.87290 36009 ft 404 kts 230°
2026-05-04 12:05 53.23593 6.80236 36007 ft 405 kts 230°
2026-05-04 12:06 53.19871 6.73190 36010 ft 405 kts 230°
2026-05-04 12:06 53.16142 6.66155 36012 ft 405 kts 230°
2026-05-04 12:07 53.12463 6.59051 36010 ft 406 kts 231°
2026-05-04 12:07 53.08818 6.51863 35990 ft 407 kts 231°
2026-05-04 12:08 53.05154 6.44683 35985 ft 407 kts 231°
2026-05-04 12:08 53.01471 6.37540 36000 ft 407 kts 230°
2026-05-04 12:09 52.97784 6.30423 36000 ft 406 kts 230°
2026-05-04 12:09 52.94098 6.23310 36008 ft 406 kts 230°
2026-05-04 12:10 52.90412 6.16210 36010 ft 406 kts 230°
2026-05-04 12:10 52.86722 6.09133 36006 ft 406 kts 230°
2026-05-04 12:11 52.83030 6.02071 36007 ft 406 kts 230°
2026-05-04 12:11 52.79357 5.95064 36004 ft 406 kts 230°
2026-05-04 12:12 52.75650 5.88020 36005 ft 406 kts 230°
2026-05-04 12:12 52.71940 5.80983 36009 ft 406 kts 230°
2026-05-04 12:14 52.57061 5.52979 36018 ft 405 kts 229°
2026-05-04 12:15 52.53347 5.46029 36026 ft 405 kts 229°
2026-05-04 12:15 52.49614 5.39101 36019 ft 405 kts 227°
2026-05-04 12:16 52.45953 5.34316 36014 ft 408 kts 212°
2026-05-04 12:16 52.40710 5.30651 36007 ft 411 kts 204°
2026-05-04 12:17 52.38045 5.28977 35888 ft 411 kts 204°
2026-05-04 12:17 52.35390 5.27303 35633 ft 408 kts 204°
2026-05-04 12:17 52.32746 5.25635 35382 ft 407 kts 204°
2026-05-04 12:17 52.30104 5.23972 35135 ft 406 kts 204°
2026-05-04 12:18 52.27472 5.22318 34893 ft 405 kts 204°
2026-05-04 12:18 52.24841 5.20666 34595 ft 404 kts 204°
2026-05-04 12:18 52.22203 5.19011 33657 ft 408 kts 204°
2026-05-04 12:18 52.19545 5.17349 32709 ft 410 kts 204°
2026-05-04 12:19 52.16886 5.15691 31948 ft 407 kts 203°
2026-05-04 12:19 52.14268 5.14061 31436 ft 399 kts 203°
2026-05-04 12:19 52.11686 5.12455 30853 ft 395 kts 203°
2026-05-04 12:19 52.09131 5.10864 30283 ft 390 kts 203°
2026-05-04 12:20 52.06612 5.09293 29660 ft 386 kts 203°
2026-05-04 12:20 52.04120 5.07738 29102 ft 381 kts 203°
2026-05-04 12:20 52.01659 5.06210 28565 ft 376 kts 203°
2026-05-04 12:20 51.99233 5.04711 28030 ft 371 kts 203°
2026-05-04 12:21 51.96830 5.03226 27505 ft 367 kts 203°
2026-05-04 12:21 51.94454 5.01755 26982 ft 364 kts 203°
2026-05-04 12:21 51.92131 5.00322 26479 ft 361 kts 202°
2026-05-04 12:21 51.89791 4.98883 25984 ft 358 kts 202°
2026-05-04 12:22 51.87470 4.97454 25491 ft 356 kts 202°
2026-05-04 12:22 51.85163 4.96032 25019 ft 354 kts 202°
2026-05-04 12:22 51.82871 4.94620 24551 ft 352 kts 202°
2026-05-04 12:22 51.80590 4.93218 24089 ft 350 kts 202°
2026-05-04 12:23 51.78316 4.91826 23645 ft 349 kts 201°
2026-05-04 12:23 51.76059 4.90449 23149 ft 346 kts 201°
2026-05-04 12:23 51.73813 4.89077 22710 ft 342 kts 201°
2026-05-04 12:23 51.71604 4.87725 22281 ft 338 kts 202°
2026-05-04 12:24 51.69412 4.86384 21844 ft 336 kts 201°
2026-05-04 12:24 51.67233 4.85054 21422 ft 334 kts 201°
2026-05-04 12:24 51.65062 4.83729 20974 ft 333 kts 201°
2026-05-04 12:24 51.62894 4.82408 20537 ft 333 kts 201°
2026-05-04 12:25 51.60732 4.81090 20089 ft 332 kts 201°
2026-05-04 12:25 51.58653 4.79494 19637 ft 331 kts 212°
2026-05-04 12:25 51.56836 4.77232 19179 ft 330 kts 225°
2026-05-04 12:25 51.55361 4.74402 18696 ft 331 kts 237°
2026-05-04 12:26 51.54139 4.71260 18206 ft 333 kts 238°
2026-05-04 12:26 51.52914 4.68102 17685 ft 333 kts 238°
2026-05-04 12:26 51.51688 4.64955 17217 ft 332 kts 238°
2026-05-04 12:26 51.50460 4.61816 16747 ft 332 kts 238°
2026-05-04 12:27 51.49231 4.58687 16281 ft 331 kts 238°
2026-05-04 12:27 51.48002 4.55563 15816 ft 331 kts 237°
2026-05-04 12:27 51.46772 4.52436 15351 ft 331 kts 237°
2026-05-04 12:27 51.45542 4.49310 14887 ft 332 kts 237°
2026-05-04 12:28 51.44313 4.46179 14431 ft 332 kts 237°
2026-05-04 12:28 51.43020 4.43115 13945 ft 332 kts 228°
2026-05-04 12:28 51.41207 4.40871 13440 ft 331 kts 205°
2026-05-04 12:28 51.38992 4.39953 12948 ft 331 kts 182°
2026-05-04 12:29 51.36735 4.40511 12467 ft 331 kts 160°
2026-05-04 12:29 51.34735 4.42215 11983 ft 330 kts 150°
2026-05-04 12:29 51.32765 4.44102 11496 ft 330 kts 150°
2026-05-04 12:29 51.30778 4.46018 10994 ft 329 kts 150°
2026-05-04 12:30 51.28818 4.47910 10501 ft 328 kts 150°
2026-05-04 12:30 51.26881 4.49772 10246 ft 319 kts 150°
2026-05-04 12:30 51.25010 4.51563 10124 ft 307 kts 150°
2026-05-04 12:30 51.23212 4.53280 9992 ft 296 kts 150°
2026-05-04 12:31 51.21487 4.54923 9679 ft 291 kts 150°
2026-05-04 12:31 51.19736 4.56588 9261 ft 291 kts 150°
2026-05-04 12:31 51.18023 4.58217 8735 ft 285 kts 150°
2026-05-04 12:31 51.16325 4.59832 8070 ft 284 kts 149°
2026-05-04 12:32 51.14636 4.61438 7445 ft 281 kts 149°
2026-05-04 12:32 51.11306 4.64599 6141 ft 276 kts 149°
2026-05-04 12:32 51.09663 4.66153 5451 ft 273 kts 149°
2026-05-04 12:33 51.08044 4.67684 4871 ft 268 kts 149°
2026-05-04 12:33 51.06450 4.69195 4331 ft 265 kts 149°
2026-05-04 12:33 51.04927 4.70635 4199 ft 244 kts 150°
2026-05-04 12:33 51.03511 4.71970 4142 ft 230 kts 150°
2026-05-04 12:34 51.02158 4.73248 4068 ft 225 kts 150°
2026-05-04 12:34 51.00848 4.74487 3985 ft 213 kts 150°
2026-05-04 12:34 50.99602 4.75664 3867 ft 204 kts 150°
2026-05-04 12:34 50.98398 4.76787 3680 ft 198 kts 154°
2026-05-04 12:35 50.97088 4.77237 3427 ft 193 kts 187°
2026-05-04 12:35 50.95851 4.76500 3145 ft 192 kts 219°
2026-05-04 12:35 50.95068 4.74827 3032 ft 192 kts 247°
2026-05-04 12:35 50.94597 4.72865 2883 ft 187 kts 250°
2026-05-04 12:36 50.94160 4.70945 2628 ft 183 kts 250°
2026-05-04 12:36 50.93733 4.69072 2394 ft 179 kts 251°
2026-05-04 12:36 50.93315 4.67244 2160 ft 174 kts 250°
2026-05-04 12:36 50.92919 4.65512 1934 ft 163 kts 251°
2026-05-04 12:37 50.92547 4.63890 1727 ft 152 kts 251°
2026-05-04 12:37 50.92191 4.62336 1528 ft 149 kts 251°
2026-05-04 12:37 50.91835 4.60784 1326 ft 147 kts 250°
2026-05-04 12:37 50.91491 4.59285 1129 ft 146 kts 251°
2026-05-04 12:38 50.91140 4.57754 931 ft 146 kts 251°
2026-05-04 12:38 50.90798 4.56266 733 ft 146 kts 251°
2026-05-04 12:38 50.90450 4.54755 533 ft 146 kts 251°
2026-05-04 12:38 50.90102 4.53238 334 ft 147 kts 251°
2026-05-04 12:39 50.89757 4.51732 174 ft 142 kts 250°
2026-05-04 12:39 50.89470 4.50490 175 ft 96 kts 250°
2026-05-04 12:39 50.89322 4.49832 177 ft 28 kts 254°
2026-05-04 12:39 50.89400 4.49611 169 ft 19 kts 306°
2026-05-04 12:40 50.89487 4.49425 164 ft 18 kts 308°
2026-05-04 12:40 50.89553 4.49290 159 ft 11 kts 308°
2026-05-04 12:40 50.89581 4.49235 156 ft 8 kts 307°
2026-05-04 12:40 50.89615 4.49158 154 ft 9 kts 318°
2026-05-04 12:41 50.89684 4.49158 150 ft 12 kts 17°
2026-05-04 12:41 50.89774 4.49199 145 ft 15 kts 15°
2026-05-04 12:41 50.89899 4.49251 138 ft 22 kts 14°
2026-05-04 12:41 50.90066 4.49319 131 ft 27 kts 14°
2026-05-04 12:42 50.90241 4.49391 124 ft 22 kts 16°
2026-05-04 12:42 50.90329 4.49363 124 ft 13 kts 289°
2026-05-04 12:42 50.90307 4.49254 123 ft 9 kts 245°
2026-05-04 12:42 50.90283 4.49168 126 ft 8 kts 246°
2026-05-04 12:43 50.90262 4.49094 126 ft 7 kts 246°
2026-05-04 12:43 50.90245 4.49030 123 ft 6 kts 246°
2026-05-04 12:43 50.90229 4.48978 126 ft 5 kts 243°
2026-05-04 12:43 50.90216 4.48936 125 ft 4 kts 244°
2026-05-04 12:44 50.90201 4.48890 125 ft 8 kts 244°
2026-05-04 12:44 50.90171 4.48787 126 ft 11 kts 245°
2026-05-04 12:44 50.90137 4.48696 127 ft 8 kts 214°
2026-05-04 12:44 50.90102 4.48713 127 ft 3 kts 139°
2026-05-04 12:45 50.90097 4.48718 128 ft 0 kts 145°
2026-05-04 12:45 50.90095 4.48720 129 ft 1 kts 146°
2026-05-04 12:45 50.90088 4.48726 127 ft 0 kts 151°
2026-05-04 12:45 50.90084 4.48729 128 ft 0 kts 152°
2026-05-04 12:46 50.90070 4.48740 131 ft 0 kts 155°